Regional Weather Roundup
Issued by NWS

Home | Current Version | Previous Version | Graphics & Text | Print | Product List | Glossary On
Versions: 1 2 3 4 5 6 7 8 9 10 11 12 13 14 15 16 17 18 19 20 21 22 23 24 25 26 27 28 29 30 31 32 33 34 35 36 37 38 39 40 41 42 43 44 45 46 47 48 49 50
000
ASUS45 KBOI 181110
RWRID
WEATHER ROUNDUP FOR IDAHO
NATIONAL WEATHER SERVICE BOISE ID
500 AM MDT SAT APR 18 2015

NOTE: "FAIR" INDICATES FEW OR NO CLOUDS BELOW 12000 FEET
WITH NO SIGNIFICANT WEATHER AND/OR OBSTRUCTIONS TO VISIBILITY

IDZ012-014-181200-
SOUTHWEST IDAHO


CITY           SKY/WX    TMP DP  RH WIND       PRES   REMARKS
BOISE          CLEAR     46  33  60 CALM      30.07R
CALDWELL       CLEAR     48  28  46 W12       30.10R
MOUNTAIN HOME  CLEAR     50  29  44 NW22G29   30.03S
$$

IDZ016-017-181200-
SOUTHCENTRAL IDAHO


CITY           SKY/WX    TMP DP  RH WIND       PRES   REMARKS
BURLEY         CLEAR     37  26  64 SW8       30.03R WCI  31
JEROME         CLEAR     44  27  51 S3        30.04R
TWIN FALLS     CLEAR     49  27  42 SW16      30.04S
$$

IDZ019>023-181200-
SOUTHEAST IDAHO


CITY           SKY/WX    TMP DP  RH WIND       PRES   REMARKS
IDAHO FALLS    CLEAR     35  28  75 CALM      30.04S
POCATELLO      CLEAR     42  25  50 SW9       30.05S
REXBURG        CLEAR     32  25  75 NE5       30.05R WCI  27
$$

IDZ006-010-011-018-031-032-181200-
CENTRAL IDAHO MOUNTAINS


CITY           SKY/WX    TMP DP  RH WIND       PRES   REMARKS
MCCALL         CLEAR     39  28  64 NE5       30.15S
HAILEY         CLEAR     43  27  52 NW12      30.08S
STANLEY          N/A     26  21  81 S3        30.19R
SALMON         CLEAR     34  23  64 CALM      30.12S
CHALLIS        CLEAR     39  23  52 S5        30.14R
$$

IDZ002-004-006-007-026-181200-
NORTHERN IDAHO


CITY           SKY/WX    TMP DP  RH WIND       PRES   REMARKS
LEWISTON       CLEAR     47  37  68 CALM      30.16R
LOWELL           N/A     41  39  93 NW3       30.21S
COEUR D`ALENE  CLEAR     41  36  81 SE6       30.17R
MULLAN PASS    CLEAR     38  29  70 NW3       30.15S
$$



USA.gov is the U.S. government's official web portal to all federal, state and local government web resources and services.